| time (UTC) | temp F | wind direction | speed MPH | gust MPH | rain 1hr in | rain 24hr in | rain mn in | humidity % | barometer mb |
| 20260506003318 | 66 | 52 | 0.0 | 1.0 | 0.00 | 0.00 | 0.00 | 62 | 1011.5 |
| 20260506002814 | 66 | 166 | 0.0 | 0.0 | 0.00 | 0.00 | 0.00 | 63 | 1011.5 |
| 20260506002311 | 66 | 16 | 0.0 | 0.0 | 0.00 | 0.00 | 0.00 | 62 | 1011.4 |
| 20260506001806 | 66 | 237 | 0.0 | 0.0 | 0.00 | 0.00 | 0.00 | 63 | 1011.5 |
| 20260506001304 | 66 | 212 | 0.0 | 0.0 | 0.00 | 0.00 | 0.00 | 63 | 1011.4 |
| 20260506000801 | 66 | 178 | 1.0 | 1.0 | 0.00 | 0.00 | 0.00 | 62 | 1011.3 |
| 20260506000258 | 67 | 102 | 0.0 | 0.0 | 0.00 | 0.00 | 0.00 | 62 | 1011.3 |
| 20260505235755 | 67 | 128 | 2.0 | 3.0 | 0.00 | 0.00 | 0.00 | 60 | 1011.1 |
| 20260505235253 | 68 | 191 | 1.0 | 2.0 | 0.00 | 0.00 | 0.00 | 60 | 1011.2 |
| 20260505234749 | 68 | 159 | 0.0 | 0.0 | 0.00 | 0.00 | 0.00 | 59 | 1010.9 |
| 20260505234247 | 68 | 171 | 0.0 | 1.0 | 0.00 | 0.00 | 0.00 | 59 | 1011.1 |
| 20260505233743 | 68 | 68 | 0.0 | 1.0 | 0.00 | 0.00 | 0.00 | 59 | 1010.7 |
| 20260505233241 | 68 | 178 | 0.0 | 0.0 | 0.00 | 0.00 | 0.00 | 59 | 1010.9 |
| 20260505232738 | 69 | 120 | 0.0 | 1.0 | 0.00 | 0.00 | 0.00 | 59 | 1011.0 |
| 20260505232236 | 69 | 226 | 0.0 | 0.0 | 0.00 | 0.00 | 0.00 | 58 | 1010.6 |
| 20260505231732 | 69 | 155 | 2.0 | 3.0 | 0.00 | 0.00 | 0.00 | 57 | 1010.9 |
| 20260505231231 | 69 | 225 | 0.0 | 0.0 | 0.00 | 0.00 | 0.00 | 57 | 1010.6 |
| 20260505230729 | 69 | 203 | 0.0 | 0.0 | 0.00 | 0.00 | 0.00 | 57 | 1010.3 |
| 20260505230225 | 70 | 233 | 0.0 | 0.0 | 0.00 | 0.00 | 0.00 | 56 | 1010.4 |
| 20260505225722 | 70 | 359 | 2.0 | 3.0 | 0.00 | 0.00 | 0.00 | 55 | 1010.2 |
| 20260505225219 | 70 | 221 | 2.0 | 2.0 | 0.00 | 0.00 | 0.00 | 56 | 1010.3 |
| 20260505224714 | 71 | 125 | 2.0 | 3.0 | 0.00 | 0.00 | 0.00 | 55 | 1010.0 |
| 20260505224212 | 70 | 68 | 5.0 | 9.0 | 0.00 | 0.00 | 0.00 | 55 | 1010.3 |
| 20260505223710 | 71 | 163 | 2.0 | 2.0 | 0.00 | 0.00 | 0.00 | 55 | 1010.2 |
| 20260505223205 | 71 | 148 | 1.0 | 1.0 | 0.00 | 0.00 | 0.00 | 55 | 1010.1 |
| 20260505222702 | 72 | 145 | 3.0 | 6.0 | 0.00 | 0.00 | 0.00 | 54 | 1010.1 |
| 20260505222158 | 73 | 218 | 1.0 | 2.0 | 0.00 | 0.00 | 0.00 | 54 | 1010.0 |
| 20260505221655 | 73 | 73 | 1.0 | 1.0 | 0.00 | 0.00 | 0.00 | 53 | 1009.8 |
| 20260505221152 | 73 | 196 | 0.0 | 0.0 | 0.00 | 0.00 | 0.00 | 55 | 1010.0 |
| 20260505220649 | 74 | 31 | 3.0 | 3.0 | 0.00 | 0.00 | 0.00 | 53 | 1009.7 |
| 20260505220147 | 73 | 212 | 1.0 | 1.0 | 0.00 | 0.00 | 0.00 | 53 | 1009.7 |
| 20260505215644 | 73 | 204 | 0.0 | 0.0 | 0.00 | 0.00 | 0.00 | 54 | 1010.0 |
| 20260505215142 | 74 | 231 | 0.0 | 1.0 | 0.00 | 0.00 | 0.00 | 52 | 1010.1 |
| 20260505214640 | 74 | 177 | 1.0 | 2.0 | 0.00 | 0.00 | 0.00 | 54 | 1009.9 |
| 20260505214137 | 74 | 280 | 2.0 | 3.0 | 0.00 | 0.00 | 0.00 | 53 | 1010.0 |
| 20260505213634 | 75 | 150 | 0.0 | 0.0 | 0.00 | 0.00 | 0.00 | 52 | 1010.0 |
| 20260505213131 | 75 | 202 | 0.0 | 0.0 | 0.00 | 0.00 | 0.00 | 50 | 1009.9 |
| 20260505212626 | 75 | 111 | 5.0 | 7.0 | 0.00 | 0.00 | 0.00 | 49 | 1009.9 |
| 20260505212125 | 75 | 236 | 0.0 | 0.0 | 0.00 | 0.00 | 0.00 | 50 | 1009.8 |
| 20260505211621 | 76 | 266 | 2.0 | 2.0 | 0.00 | 0.00 | 0.00 | 49 | 1009.8 |
| 20260505211119 | 76 | 235 | 3.0 | 3.0 | 0.00 | 0.00 | 0.00 | 50 | 1009.5 |
| 20260505210615 | 76 | 256 | 1.0 | 2.0 | 0.00 | 0.00 | 0.00 | 50 | 1009.7 |
| 20260505210112 | 76 | 57 | 4.0 | 6.0 | 0.00 | 0.00 | 0.00 | 48 | 1009.4 |
| 20260505205609 | 77 | 278 | 4.0 | 4.0 | 0.00 | 0.00 | 0.00 | 47 | 1009.6 |
| 20260505205107 | 77 | 6 | 3.0 | 7.0 | 0.00 | 0.00 | 0.00 | 47 | 1009.6 |
| 20260505204604 | 77 | 151 | 1.0 | 1.0 | 0.00 | 0.00 | 0.00 | 49 | 1009.5 |
| 20260505204101 | 77 | 176 | 2.0 | 3.0 | 0.00 | 0.00 | 0.00 | 50 | 1009.7 |
| 20260505203558 | 77 | 113 | 2.0 | 3.0 | 0.00 | 0.00 | 0.00 | 47 | 1009.6 |
| 20260505203055 | 76 | 297 | 2.0 | 2.0 | 0.00 | 0.00 | 0.00 | 48 | 1009.8 |
| 20260505202551 | 77 | 247 | 0.0 | 1.0 | 0.00 | 0.00 | 0.00 | 47 | 1010.0 |
| 20260505202047 | 78 | 248 | 2.0 | 3.0 | 0.00 | 0.00 | 0.00 | 46 | 1010.1 |
| 20260505201544 | 78 | 193 | 2.0 | 3.0 | 0.00 | 0.00 | 0.00 | 45 | 1010.0 |
| 20260505201042 | 78 | 316 | 2.0 | 3.0 | 0.00 | 0.00 | 0.00 | 44 | 1009.8 |
| 20260505200539 | 78 | 259 | 5.0 | 7.0 | 0.00 | 0.00 | 0.00 | 43 | 1009.7 |
| 20260505200036 | 78 | 244 | 3.0 | 3.0 | 0.00 | 0.00 | 0.00 | 43 | 1009.7 |
| 20260505195532 | 79 | 139 | 4.0 | 6.0 | 0.00 | 0.00 | 0.00 | 43 | 1009.7 |
| 20260505195030 | 79 | 290 | 2.0 | 2.0 | 0.00 | 0.00 | 0.00 | 44 | 1010.0 |
| 20260505194527 | 79 | 347 | 0.0 | 0.0 | 0.00 | 0.00 | 0.00 | 46 | 1009.9 |
| 20260505194022 | 79 | 123 | 3.0 | 6.0 | 0.00 | 0.00 | 0.00 | 45 | 1010.2 |
| 20260505193520 | 78 | 294 | 0.0 | 1.0 | 0.00 | 0.00 | 0.00 | 47 | 1010.0 |
| 20260505193017 | 79 | 235 | 1.0 | 1.0 | 0.00 | 0.00 | 0.00 | 48 | 1010.3 |
| 20260505192516 | 79 | 245 | 2.0 | 3.0 | 0.00 | 0.00 | 0.00 | 47 | 1010.1 |
| 20260505192013 | 79 | 250 | 0.0 | 0.0 | 0.00 | 0.00 | 0.00 | 47 | 1010.0 |
| 20260505191511 | 80 | 241 | 3.0 | 3.0 | 0.00 | 0.00 | 0.00 | 44 | 1010.4 |
| 20260505191008 | 78 | 259 | 2.0 | 3.0 | 0.00 | 0.00 | 0.00 | 44 | 1010.2 |
| 20260505190503 | 78 | 276 | 2.0 | 3.0 | 0.00 | 0.00 | 0.00 | 44 | 1010.2 |
| 20260505185958 | 78 | 319 | 6.0 | 8.0 | 0.00 | 0.00 | 0.00 | 43 | 1010.5 |
| 20260505185456 | 78 | 206 | 4.0 | 4.0 | 0.00 | 0.00 | 0.00 | 44 | 1010.5 |
| 20260505184952 | 79 | 275 | 2.0 | 3.0 | 0.00 | 0.00 | 0.00 | 43 | 1010.6 |
| 20260505184449 | 79 | 308 | 1.0 | 1.0 | 0.00 | 0.00 | 0.00 | 45 | 1011.0 |
| 20260505183945 | 78 | 232 | 1.0 | 2.0 | 0.00 | 0.00 | 0.00 | 46 | 1010.7 |
| 20260505183443 | 78 | 171 | 2.0 | 2.0 | 0.00 | 0.00 | 0.00 | 46 | 1011.0 |
| 20260505182939 | 78 | 87 | 3.0 | 4.0 | 0.00 | 0.00 | 0.00 | 46 | 1010.9 |
| 20260505182436 | 78 | 234 | 6.0 | 8.0 | 0.00 | 0.00 | 0.00 | 45 | 1010.9 |
| 20260505181932 | 78 | 252 | 4.0 | 4.0 | 0.00 | 0.00 | 0.00 | 48 | 1010.6 |
| 20260505181430 | 77 | 236 | 0.0 | 0.0 | 0.00 | 0.00 | 0.00 | 54 | 1011.1 |
| 20260505180927 | 77 | 259 | 2.0 | 3.0 | 0.00 | 0.00 | 0.00 | 48 | 1010.9 |
| 20260505180423 | 77 | 230 | 1.0 | 2.0 | 0.00 | 0.00 | 0.00 | 49 | 1011.2 |
| 20260505175920 | 77 | 69 | 1.0 | 4.0 | 0.00 | 0.00 | 0.00 | 50 | 1010.9 |
| 20260505175416 | 77 | 224 | 0.0 | 0.0 | 0.00 | 0.00 | 0.00 | 48 | 1011.0 |
| 20260505174912 | 76 | 261 | 1.0 | 2.0 | 0.00 | 0.00 | 0.00 | 50 | 1011.1 |
| 20260505174410 | 76 | 290 | 4.0 | 6.0 | 0.00 | 0.00 | 0.00 | 51 | 1011.2 |
| 20260505173906 | 77 | 253 | 1.0 | 1.0 | 0.00 | 0.00 | 0.00 | 49 | 1011.2 |
| 20260505173402 | 77 | 200 | 1.0 | 2.0 | 0.00 | 0.00 | 0.00 | 47 | 1011.1 |
| 20260505172859 | 76 | 242 | 0.0 | 1.0 | 0.00 | 0.00 | 0.00 | 52 | 1011.2 |
| 20260505172357 | 77 | 284 | 3.0 | 3.0 | 0.00 | 0.00 | 0.00 | 49 | 1011.6 |
| 20260505171857 | 77 | 354 | 1.0 | 4.0 | 0.00 | 0.00 | 0.00 | 49 | 1011.4 |
| 20260505171354 | 77 | 288 | 3.0 | 3.0 | 0.00 | 0.00 | 0.00 | 49 | 1011.4 |
| 20260505170850 | 76 | 105 | 4.0 | 6.0 | 0.00 | 0.00 | 0.00 | 51 | 1011.4 |
| 20260505170348 | 76 | 242 | 1.0 | 1.0 | 0.00 | 0.00 | 0.00 | 48 | 1011.5 |
| 20260505165842 | 76 | 226 | 2.0 | 3.0 | 0.00 | 0.00 | 0.00 | 50 | 1011.6 |
| 20260505165338 | 74 | 247 | 2.0 | 3.0 | 0.00 | 0.00 | 0.00 | 50 | 1011.8 |
| 20260505164834 | 75 | 220 | 1.0 | 2.0 | 0.00 | 0.00 | 0.00 | 51 | 1011.6 |
| 20260505164331 | 75 | 187 | 0.0 | 1.0 | 0.00 | 0.00 | 0.00 | 51 | 1012.0 |
| 20260505163829 | 75 | 284 | 2.0 | 3.0 | 0.00 | 0.00 | 0.00 | 51 | 1012.1 |
| 20260505163328 | 75 | 299 | 5.0 | 6.0 | 0.00 | 0.00 | 0.00 | 50 | 1012.0 |
| 20260505162826 | 75 | 63 | 1.0 | 2.0 | 0.00 | 0.00 | 0.00 | 50 | 1012.2 |
| 20260505162322 | 74 | 63 | 0.0 | 1.0 | 0.00 | 0.00 | 0.00 | 56 | 1012.4 |
| 20260505161819 | 74 | 74 | 2.0 | 4.0 | 0.00 | 0.00 | 0.00 | 51 | 1012.5 |
| 20260505161316 | 73 | 26 | 2.0 | 2.0 | 0.00 | 0.00 | 0.00 | 52 | 1012.3 |
| 20260505160814 | 74 | 288 | 2.0 | 6.0 | 0.00 | 0.00 | 0.00 | 52 | 1012.3 |
| 20260505160312 | 74 | 90 | 2.0 | 3.0 | 0.00 | 0.00 | 0.00 | 55 | 1012.3 |
| 20260505153250 | 71 | 333 | 3.0 | 4.0 | 0.00 | 0.00 | 0.00 | 57 | 1012.6 |
| 20260505152747 | 70 | 234 | 0.0 | 1.0 | 0.00 | 0.00 | 0.00 | 60 | 1012.6 |
| 20260505152244 | 71 | 248 | 2.0 | 2.0 | 0.00 | 0.00 | 0.00 | 58 | 1012.8 |
| 20260505151738 | 71 | 275 | 4.0 | 4.0 | 0.00 | 0.00 | 0.00 | 58 | 1012.8 |
| 20260505151236 | 70 | 259 | 2.0 | 3.0 | 0.00 | 0.00 | 0.00 | 60 | 1012.8 |
| 20260505150732 | 70 | 92 | 2.0 | 3.0 | 0.00 | 0.00 | 0.00 | 58 | 1012.8 |
| 20260505150230 | 70 | 267 | 2.0 | 2.0 | 0.00 | 0.00 | 0.00 | 58 | 1012.7 |
| 20260505140154 | 67 | 64 | 0.0 | 0.0 | 0.00 | 0.00 | 0.00 | 64 | 1012.9 |
| 20260505130118 | 60 | 213 | 0.0 | 0.0 | 0.00 | 0.00 | 0.00 | 75 | 1012.4 |
| 20260505124607 | 58 | 235 | 0.0 | 0.0 | 0.00 | 0.00 | 0.00 | 81 | 1012.5 |
| 20260505124103 | 56 | 293 | 0.0 | 0.0 | 0.00 | 0.00 | 0.00 | 84 | 1012.4 |
| 20260505123600 | 55 | 18 | 1.0 | 1.0 | 0.00 | 0.00 | 0.00 | 86 | 1012.7 |
| 20260505123056 | 55 | 217 | 0.0 | 0.0 | 0.00 | 0.00 | 0.00 | 87 | 1012.6 |
| 20260505122553 | 55 | 291 | 0.0 | 0.0 | 0.00 | 0.00 | 0.00 | 87 | 1012.7 |
| 20260505122050 | 55 | 348 | 0.0 | 0.0 | 0.00 | 0.00 | 0.00 | 85 | 1012.8 |
| 20260505121547 | 55 | 258 | 0.0 | 0.0 | 0.00 | 0.00 | 0.00 | 85 | 1012.7 |
| 20260505121044 | 54 | 336 | 0.0 | 0.0 | 0.00 | 0.00 | 0.00 | 85 | 1012.7 |
| 20260505120540 | 54 | 34 | 0.0 | 1.0 | 0.00 | 0.00 | 0.00 | 87 | 1012.7 |
| 20260505120036 | 53 | 241 | 2.0 | 3.0 | 0.00 | 0.00 | 0.00 | 87 | 1012.9 |
| 20260505115530 | 54 | 106 | 1.0 | 2.0 | 0.00 | 0.00 | 0.00 | 84 | 1012.9 |
| 20260505115028 | 54 | 266 | 0.0 | 0.0 | 0.00 | 0.00 | 0.00 | 82 | 1013.2 |
| 20260505114525 | 54 | 343 | 0.0 | 0.0 | 0.00 | 0.00 | 0.00 | 83 | 1012.8 |
| 20260505114021 | 54 | 174 | 0.0 | 0.0 | 0.00 | 0.00 | 0.00 | 82 | 1012.7 |
| 20260505113518 | 53 | 228 | 0.0 | 0.0 | 0.00 | 0.00 | 0.00 | 83 | 1013.0 |
| 20260505113014 | 53 | 237 | 0.0 | 0.0 | 0.00 | 0.00 | 0.00 | 84 | 1013.3 |
| 20260505112511 | 53 | 255 | 0.0 | 0.0 | 0.00 | 0.00 | 0.00 | 84 | 1013.5 |
| 20260505112009 | 53 | 251 | 0.0 | 0.0 | 0.00 | 0.00 | 0.00 | 84 | 1013.5 |
| 20260505111502 | 53 | 245 | 0.0 | 0.0 | 0.00 | 0.00 | 0.00 | 83 | 1013.4 |
| 20260505110959 | 53 | 253 | 0.0 | 0.0 | 0.00 | 0.00 | 0.00 | 84 | 1013.1 |
| 20260505110455 | 53 | 262 | 0.0 | 0.0 | 0.00 | 0.00 | 0.00 | 84 | 1013.2 |
| 20260505101927 | 50 | 161 | 0.0 | 0.0 | 0.00 | 0.00 | 0.00 | 87 | 1013.0 |
| 20260505101421 | 50 | 187 | 0.0 | 0.0 | 0.00 | 0.00 | 0.00 | 87 | 1012.5 |
| 20260505100917 | 50 | 276 | 0.0 | 0.0 | 0.00 | 0.00 | 0.00 | 87 | 1012.4 |
| 20260505100414 | 51 | 245 | 0.0 | 0.0 | 0.00 | 0.00 | 0.00 | 86 | 1012.6 |
| 20260505095909 | 51 | 33 | 0.0 | 0.0 | 0.00 | 0.00 | 0.00 | 85 | 1012.5 |
| 20260505095407 | 51 | 258 | 0.0 | 0.0 | 0.00 | 0.00 | 0.00 | 85 | 1012.2 |
| 20260505094903 | 51 | 155 | 0.0 | 1.0 | 0.00 | 0.00 | 0.00 | 85 | 1012.1 |
| 20260505094400 | 51 | 121 | 0.0 | 0.0 | 0.00 | 0.00 | 0.00 | 85 | 1012.3 |
| 20260505093855 | 50 | 20 | 0.0 | 0.0 | 0.00 | 0.00 | 0.00 | 86 | 1012.4 |
| 20260505093353 | 50 | 231 | 0.0 | 0.0 | 0.00 | 0.00 | 0.00 | 87 | 1011.8 |
| 20260505092850 | 49 | 294 | 0.0 | 0.0 | 0.00 | 0.00 | 0.00 | 88 | 1012.0 |
| 20260505092348 | 49 | 45 | 0.0 | 0.0 | 0.00 | 0.00 | 0.00 | 87 | 1012.0 |
| 20260505091845 | 49 | 113 | 0.0 | 1.0 | 0.00 | 0.00 | 0.00 | 87 | 1012.0 |
| 20260505091343 | 50 | 215 | 0.0 | 0.0 | 0.00 | 0.00 | 0.00 | 87 | 1011.9 |
| 20260505090841 | 50 | 117 | 0.0 | 0.0 | 0.00 | 0.00 | 0.00 | 85 | 1012.0 |
| 20260505090339 | 52 | 152 | 0.0 | 0.0 | 0.00 | 0.00 | 0.00 | 82 | 1012.0 |
| 20260505085836 | 52 | 102 | 0.0 | 0.0 | 0.00 | 0.00 | 0.00 | 81 | 1012.1 |
| 20260505085334 | 52 | 194 | 0.0 | 1.0 | 0.00 | 0.00 | 0.00 | 82 | 1012.0 |
| 20260505084831 | 52 | 181 | 0.0 | 0.0 | 0.00 | 0.00 | 0.00 | 82 | 1012.2 |
| 20260505084330 | 52 | 218 | 0.0 | 0.0 | 0.00 | 0.00 | 0.00 | 82 | 1012.1 |
| 20260505083826 | 52 | 237 | 0.0 | 0.0 | 0.00 | 0.00 | 0.00 | 81 | 1012.2 |
| 20260505083324 | 51 | 157 | 1.0 | 1.0 | 0.00 | 0.00 | 0.00 | 82 | 1012.1 |
| 20260505082820 | 51 | 107 | 0.0 | 0.0 | 0.00 | 0.00 | 0.00 | 82 | 1012.0 |
| 20260505082317 | 52 | 80 | 0.0 | 0.0 | 0.00 | 0.00 | 0.00 | 81 | 1012.2 |
| 20260505081813 | 52 | 122 | 0.0 | 0.0 | 0.00 | 0.00 | 0.00 | 80 | 1012.1 |
| 20260505081310 | 52 | 224 | 0.0 | 0.0 | 0.00 | 0.00 | 0.00 | 80 | 1012.2 |
| 20260505080807 | 53 | 222 | 0.0 | 0.0 | 0.00 | 0.00 | 0.00 | 79 | 1012.1 |
| 20260505080303 | 53 | 29 | 0.0 | 0.0 | 0.00 | 0.00 | 0.00 | 80 | 1012.2 |
| 20260505075758 | 53 | 251 | 0.0 | 0.0 | 0.00 | 0.00 | 0.00 | 79 | 1012.1 |
| 20260505075255 | 53 | 56 | 1.0 | 1.0 | 0.00 | 0.00 | 0.00 | 78 | 1012.2 |
| 20260505074753 | 53 | 205 | 0.0 | 0.0 | 0.00 | 0.00 | 0.00 | 78 | 1012.1 |
| 20260505074250 | 53 | 133 | 0.0 | 0.0 | 0.00 | 0.00 | 0.00 | 77 | 1012.0 |
| 20260505073747 | 53 | 209 | 0.0 | 0.0 | 0.00 | 0.00 | 0.00 | 77 | 1012.0 |
| 20260505073245 | 53 | 208 | 0.0 | 0.0 | 0.00 | 0.00 | 0.00 | 76 | 1012.0 |
| 20260505072741 | 53 | 255 | 0.0 | 0.0 | 0.00 | 0.00 | 0.00 | 77 | 1012.1 |
| 20260505072238 | 53 | 179 | 0.0 | 0.0 | 0.00 | 0.00 | 0.00 | 77 | 1012.1 |
| 20260505071733 | 54 | 241 | 0.0 | 0.0 | 0.00 | 0.00 | 0.00 | 76 | 1012.3 |
| 20260505071230 | 54 | 306 | 0.0 | 0.0 | 0.00 | 0.00 | 0.00 | 76 | 1012.4 |
| 20260505070728 | 53 | 277 | 1.0 | 3.0 | 0.00 | 0.00 | 0.00 | 76 | 1012.1 |
| 20260505070223 | 53 | 246 | 0.0 | 0.0 | 0.00 | 0.00 | 0.00 | 76 | 1012.2 |
| 20260505065719 | 53 | 244 | 0.0 | 0.0 | 0.00 | 0.00 | 0.00 | 75 | 1012.5 |
| 20260505065211 | 53 | 240 | 0.0 | 0.0 | 0.00 | 0.00 | 0.00 | 75 | 1012.0 |
| 20260505064708 | 53 | 201 | 0.0 | 0.0 | 0.00 | 0.00 | 0.00 | 75 | 1012.2 |
| 20260505064206 | 53 | 295 | 0.0 | 0.0 | 0.00 | 0.00 | 0.00 | 76 | 1012.1 |
| 20260505063704 | 53 | 233 | 0.0 | 0.0 | 0.00 | 0.00 | 0.00 | 75 | 1012.3 |
| 20260505063159 | 53 | 244 | 0.0 | 0.0 | 0.00 | 0.00 | 0.00 | 75 | 1012.4 |
| 20260505062655 | 52 | 209 | 0.0 | 0.0 | 0.00 | 0.00 | 0.00 | 77 | 1012.4 |
| 20260505062154 | 52 | 242 | 0.0 | 0.0 | 0.00 | 0.00 | 0.00 | 77 | 1012.4 |
| 20260505061650 | 52 | 245 | 0.0 | 0.0 | 0.00 | 0.00 | 0.00 | 77 | 1012.4 |
| 20260505061149 | 53 | 242 | 0.0 | 0.0 | 0.00 | 0.00 | 0.00 | 76 | 1012.3 |
| 20260505060645 | 53 | 329 | 0.0 | 0.0 | 0.00 | 0.00 | 0.00 | 75 | 1012.5 |
| 20260505060142 | 53 | 8 | 0.0 | 1.0 | 0.00 | 0.00 | 0.00 | 75 | 1012.2 |
| 20260505055637 | 53 | 202 | 0.0 | 0.0 | 0.00 | 0.00 | 0.00 | 74 | 1012.5 |
| 20260505055134 | 54 | 252 | 0.0 | 0.0 | 0.00 | 0.00 | 0.00 | 73 | 1012.4 |
| 20260505054632 | 54 | 248 | 0.0 | 0.0 | 0.00 | 0.00 | 0.00 | 73 | 1012.4 |
| 20260505054130 | 54 | 246 | 0.0 | 0.0 | 0.00 | 0.00 | 0.00 | 73 | 1012.5 |
| 20260505053627 | 54 | 249 | 0.0 | 0.0 | 0.00 | 0.00 | 0.00 | 73 | 1012.5 |
| 20260505053123 | 54 | 248 | 0.0 | 0.0 | 0.00 | 0.00 | 0.00 | 72 | 1012.5 |
| 20260505052620 | 54 | 154 | 0.0 | 0.0 | 0.00 | 0.00 | 0.00 | 72 | 1012.6 |
| 20260505052118 | 54 | 23 | 2.0 | 3.0 | 0.00 | 0.00 | 0.00 | 72 | 1012.7 |
| 20260505051614 | 54 | 128 | 0.0 | 0.0 | 0.00 | 0.00 | 0.00 | 73 | 1012.6 |
| 20260505051113 | 54 | 316 | 2.0 | 3.0 | 0.00 | 0.00 | 0.00 | 73 | 1012.5 |
| 20260505050610 | 55 | 353 | 0.0 | 0.0 | 0.00 | 0.00 | 0.00 | 72 | 1012.8 |
| 20260505050108 | 54 | 94 | 0.0 | 0.0 | 0.00 | 0.00 | 0.00 | 73 | 1012.6 |
| 20260505041538 | 55 | 56 | 0.0 | 0.0 | 0.00 | 0.00 | 0.00 | 73 | 1013.0 |
| 20260505041036 | 55 | 124 | 1.0 | 1.0 | 0.00 | 0.00 | 0.00 | 70 | 1012.8 |
| 20260505040533 | 55 | 125 | 2.0 | 3.0 | 0.00 | 0.00 | 0.00 | 70 | 1013.2 |
| 20260505040030 | 55 | 120 | 1.0 | 1.0 | 0.00 | 0.00 | 0.00 | 69 | 1013.0 |
| 20260505035525 | 55 | 133 | 1.0 | 2.0 | 0.00 | 0.00 | 0.00 | 70 | 1013.0 |
| 20260505035023 | 54 | 73 | 1.0 | 1.0 | 0.00 | 0.00 | 0.00 | 71 | 1013.0 |
| 20260505034519 | 54 | 127 | 1.0 | 1.0 | 0.00 | 0.00 | 0.00 | 72 | 1013.0 |
| 20260505034016 | 55 | 117 | 1.0 | 1.0 | 0.00 | 0.00 | 0.00 | 71 | 1013.1 |
| 20260505033513 | 55 | 135 | 0.0 | 1.0 | 0.00 | 0.00 | 0.00 | 71 | 1012.9 |
| 20260505033011 | 54 | 103 | 1.0 | 2.0 | 0.00 | 0.00 | 0.00 | 72 | 1013.0 |
| 20260505032508 | 54 | 124 | 2.0 | 3.0 | 0.00 | 0.00 | 0.00 | 73 | 1012.8 |
| 20260505032005 | 54 | 107 | 1.0 | 1.0 | 0.00 | 0.00 | 0.00 | 73 | 1013.0 |
| 20260505031502 | 54 | 91 | 1.0 | 2.0 | 0.00 | 0.00 | 0.00 | 74 | 1012.9 |
| 20260505030958 | 53 | 112 | 0.0 | 1.0 | 0.00 | 0.00 | 0.00 | 74 | 1012.9 |
| 20260505030455 | 53 | 111 | 0.0 | 1.0 | 0.00 | 0.00 | 0.00 | 74 | 1013.0 |
| 20260505025950 | 53 | 114 | 0.0 | 0.0 | 0.00 | 0.00 | 0.00 | 74 | 1013.0 |
| 20260505025447 | 53 | 121 | 0.0 | 1.0 | 0.00 | 0.00 | 0.00 | 74 | 1013.1 |
| 20260505024946 | 54 | 115 | 1.0 | 1.0 | 0.00 | 0.00 | 0.00 | 74 | 1013.0 |
| 20260505024443 | 53 | 115 | 0.0 | 1.0 | 0.00 | 0.00 | 0.00 | 74 | 1012.8 |
| 20260505023940 | 53 | 127 | 0.0 | 1.0 | 0.00 | 0.00 | 0.00 | 75 | 1013.0 |
| 20260505023437 | 53 | 119 | 0.0 | 0.0 | 0.00 | 0.00 | 0.00 | 74 | 1013.1 |
| 20260505022934 | 53 | 120 | 2.0 | 2.0 | 0.00 | 0.00 | 0.00 | 75 | 1013.3 |
| 20260505022432 | 53 | 118 | 0.0 | 0.0 | 0.00 | 0.00 | 0.00 | 75 | 1013.1 |
| 20260505021929 | 54 | 114 | 1.0 | 1.0 | 0.00 | 0.00 | 0.00 | 74 | 1012.9 |
| 20260505021425 | 53 | 119 | 0.0 | 1.0 | 0.00 | 0.00 | 0.00 | 74 | 1013.1 |
| 20260505020921 | 53 | 112 | 1.0 | 1.0 | 0.00 | 0.00 | 0.00 | 74 | 1013.1 |
| 20260505020416 | 53 | 111 | 0.0 | 0.0 | 0.00 | 0.00 | 0.00 | 74 | 1013.0 |
| 20260505015914 | 54 | 112 | 0.0 | 0.0 | 0.00 | 0.00 | 0.00 | 73 | 1013.1 |
| 20260505015411 | 54 | 112 | 1.0 | 1.0 | 0.00 | 0.00 | 0.00 | 72 | 1013.2 |
| 20260505014908 | 54 | 117 | 0.0 | 1.0 | 0.00 | 0.00 | 0.00 | 72 | 1013.3 |
| 20260505014405 | 54 | 119 | 0.0 | 1.0 | 0.00 | 0.00 | 0.00 | 73 | 1013.1 |
| 20260505013902 | 54 | 115 | 0.0 | 0.0 | 0.00 | 0.00 | 0.00 | 71 | 1013.1 |
| 20260505013358 | 54 | 120 | 1.0 | 1.0 | 0.00 | 0.00 | 0.00 | 71 | 1013.1 |
| 20260505012857 | 54 | 116 | 0.0 | 0.0 | 0.00 | 0.00 | 0.00 | 71 | 1012.8 |
| 20260505012355 | 54 | 122 | 1.0 | 1.0 | 0.00 | 0.00 | 0.00 | 70 | 1012.8 |
| 20260505011850 | 55 | 119 | 0.0 | 0.0 | 0.00 | 0.00 | 0.00 | 70 | 1012.7 |
| 20260505011347 | 55 | 118 | 0.0 | 0.0 | 0.00 | 0.00 | 0.00 | 69 | 1012.7 |
| 20260505010844 | 55 | 121 | 0.0 | 1.0 | 0.00 | 0.00 | 0.00 | 68 | 1012.5 |
| 20260505010339 | 55 | 120 | 0.0 | 1.0 | 0.00 | 0.00 | 0.00 | 67 | 1012.5 |
| 20260505005836 | 56 | 138 | 1.0 | 1.0 | 0.00 | 0.00 | 0.00 | 66 | 1012.5 |
| 20260505005333 | 56 | 109 | 0.0 | 0.0 | 0.00 | 0.00 | 0.00 | 66 | 1012.4 |
| 20260505004830 | 56 | 130 | 1.0 | 1.0 | 0.00 | 0.00 | 0.00 | 65 | 1012.4 |
| 20260505004326 | 56 | 123 | 1.0 | 2.0 | 0.00 | 0.00 | 0.00 | 64 | 1012.4 |
| 20260505003824 | 57 | 139 | 1.0 | 1.0 | 0.00 | 0.00 | 0.00 | 63 | 1012.5 |